EW4504 Weather Reports


Display with metric or nautical units.
time (UTC)temp
F
wind
direction
speed
MPH
gust
MPH
rain 1hr
in
rain 24hr
in
rain mn
in
humidity
%
barometer
mb
20260831053529 75 0 0.0 0.0 0.00 0.00 0.00 85 1020.1
20260831053042 75 0 0.0 0.0 0.00 0.00 0.00 86 1020.1
20260831052534 75 0 0.0 0.0 0.00 0.00 0.00 85 1020.1
20260831052034 75 0 0.0 0.0 0.00 0.00 0.00 85 1020.1
20260831051559 75 0 0.0 0.0 0.00 0.00 0.00 85 1020.1
20260831051032 75 0 0.0 0.0 0.00 0.00 0.00 85 1020.1
20260831050531 75 0 0.0 0.0 0.00 0.00 0.00 84 1020.2
20260831050048 75 0 0.0 0.0 0.00 0.00 0.00 84 1020.2
20260831045531 76 0 0.0 0.0 0.00 0.00 0.00 84 1020.2
20260831045030 76 0 0.0 0.0 0.00 0.00 0.00 84 1020.2
20260831044546 76 0 0.0 1.0 0.00 0.00 0.00 83 1020.1
20260831044031 76 0 0.0 2.0 0.00 0.00 0.00 83 1020.1
20260831043528 76 0 0.0 2.0 0.00 0.00 0.00 83 1020.1
20260831043046 76 107 0.0 0.0 0.00 0.00 0.00 83 1020.1
20260831042531 76 0 0.0 0.0 0.00 0.00 0.00 83 1020.1
20260831042031 76 0 0.0 0.0 0.00 0.00 0.00 83 1020.1
20260831041555 76 0 0.0 0.0 0.00 0.00 0.00 82 1020.2
20260831041031 76 0 0.0 0.0 0.00 0.00 0.00 82 1020.3
20260831040533 76 0 0.0 0.0 0.00 0.00 0.00 82 1020.2
20260831040046 76 0 0.0 0.0 0.00 0.00 0.00 81 1020.2
20260831035536 76 0 0.0 0.0 0.00 0.00 0.00 81 1020.3
20260831035029 77 0 0.0 0.0 0.00 0.00 0.00 81 1020.2
20260831034548 77 0 0.0 0.0 0.00 0.00 0.00 81 1020.2
20260831034030 77 0 0.0 0.0 0.00 0.00 0.00 81 1020.2
20260831033533 77 0 0.0 0.0 0.00 0.00 0.00 80 1020.2
20260831033058 77 0 0.0 0.0 0.00 0.00 0.00 80 1020.3
20260831032529 77 0 0.0 3.0 0.00 0.00 0.00 80 1020.2
20260831032032 77 0 0.0 3.0 0.00 0.00 0.00 80 1020.2
20260831031551 77 0 0.0 2.0 0.00 0.00 0.00 80 1020.2
20260831031032 77 0 0.0 0.0 0.00 0.00 0.00 80 1020.3
20260831030530 77 0 0.0 0.0 0.00 0.00 0.00 80 1020.5
20260831030048 77 0 0.0 0.0 0.00 0.00 0.00 80 1020.4
20260831025530 77 0 0.0 0.0 0.00 0.00 0.00 79 1020.4
20260831025030 78 0 0.0 0.0 0.00 0.00 0.00 79 1020.4
20260831024543 78 0 0.0 0.0 0.00 0.00 0.00 79 1020.4
20260831024031 78 0 0.0 0.0 0.00 0.00 0.00 79 1020.4
20260831023531 78 0 0.0 0.0 0.00 0.00 0.00 79 1020.4
20260831023055 78 0 0.0 0.0 0.00 0.00 0.00 79 1020.4
20260831022529 78 0 0.0 0.0 0.00 0.00 0.00 78 1020.4
20260831022031 78 0 0.0 0.0 0.00 0.00 0.00 78 1020.4
20260831021551 78 0 0.0 0.0 0.00 0.00 0.00 78 1020.4
20260831021031 78 0 0.0 0.0 0.00 0.00 0.00 78 1020.4
20260831020533 78 0 0.0 0.0 0.00 0.00 0.00 78 1020.3
20260831020053 79 0 0.0 0.0 0.00 0.00 0.00 78 1020.2
20260831015530 79 0 0.0 0.0 0.00 0.00 0.00 77 1020.1
20260831015031 79 0 0.0 0.0 0.00 0.00 0.00 77 1020.1
20260831014543 79 0 0.0 0.0 0.00 0.00 0.00 77 1020.0
20260831014032 79 0 0.0 0.0 0.00 0.00 0.00 76 1019.9
20260831013529 79 0 0.0 0.0 0.00 0.00 0.00 76 1019.9
20260831013106 80 0 0.0 1.0 0.00 0.00 0.00 75 1019.9
20260831012534 80 0 0.0 1.0 0.00 0.00 0.00 75 1019.9
20260831012032 80 0 0.0 1.0 0.00 0.00 0.00 75 1019.9
20260831011549 80 0 0.0 1.0 0.00 0.00 0.00 74 1019.9
20260831011031 81 0 0.0 1.0 0.00 0.00 0.00 74 1019.7
20260831010531 81 0 0.0 1.0 0.00 0.00 0.00 73 1019.5
20260831010052 81 0 0.0 1.0 0.00 0.00 0.00 73 1019.5
20260831005531 81 0 0.0 0.0 0.00 0.00 0.00 72 1019.5
20260831005032 82 0 0.0 0.0 0.00 0.00 0.00 71 1019.5
20260831004556 82 0 0.0 0.0 0.00 0.00 0.00 70 1019.3
20260831004032 82 0 0.0 0.0 0.00 0.00 0.00 70 1019.4
20260831003534 83 0 0.0 0.0 0.00 0.00 0.00 69 1019.4
20260831003104 83 0 0.0 0.0 0.00 0.00 0.00 68 1019.3
20260831002530 83 0 0.0 0.0 0.00 0.00 0.00 68 1019.3
20260831002030 84 0 0.0 0.0 0.00 0.00 0.00 67 1019.3
20260831001552 84 0 0.0 0.0 0.00 0.00 0.00 66 1019.2
20260831001032 85 0 0.0 0.0 0.00 0.00 0.00 66 1019.2
20260831000530 85 0 0.0 0.0 0.00 0.00 0.00 65 1019.3
20260831000047 85 0 0.0 1.0 0.00 0.00 0.00 65 1019.2
20260830235530 86 0 0.0 2.0 0.00 0.00 0.00 64 1019.3
20260830235030 86 0 0.0 2.0 0.00 0.00 0.00 64 1019.3
20260830234552 86 0 0.0 2.0 0.00 0.00 0.00 63 1019.3
20260830234031 86 0 0.0 2.0 0.00 0.00 0.00 62 1019.2
20260830233531 86 0 0.0 2.0 0.00 0.00 0.00 62 1019.3
20260830233100 87 0 0.0 3.0 0.00 0.00 0.00 62 1019.2
20260830232534 87 108 1.0 3.0 0.00 0.00 0.00 61 1019.2
20260830232031 87 0 0.0 3.0 0.00 0.00 0.00 61 1019.2
20260830231544 87 0 0.0 3.0 0.00 0.00 0.00 61 1019.1
20260830231032 88 115 0.0 4.0 0.00 0.00 0.00 61 1019.0
20260830230531 88 0 1.0 4.0 0.00 0.00 0.00 60 1019.0
20260830230042 88 0 0.0 3.0 0.00 0.00 0.00 60 1019.0
20260830225531 88 105 0.0 6.0 0.00 0.00 0.00 59 1019.0
20260830225034 88 0 2.0 9.0 0.00 0.00 0.00 59 1019.2
20260830224548 88 105 3.0 9.0 0.00 0.00 0.00 58 1019.2
20260830224028 88 147 2.0 7.0 0.00 0.00 0.00 58 1019.0
20260830223531 88 111 3.0 9.0 0.00 0.00 0.00 58 1019.1
20260830223107 88 55 5.0 9.0 0.00 0.00 0.00 59 1019.0
20260830222532 88 114 3.0 9.0 0.00 0.00 0.00 58 1018.9
20260830222030 89 0 2.0 8.0 0.00 0.00 0.00 59 1019.1
20260830221549 88 123 1.0 4.0 0.00 0.00 0.00 58 1019.0
20260830221029 88 134 1.0 5.0 0.00 0.00 0.00 58 1018.9
20260830220531 88 134 0.0 6.0 0.00 0.00 0.00 58 1019.0
20260830220044 88 88 3.0 7.0 0.00 0.00 0.00 58 1019.0
20260830215531 88 82 1.0 7.0 0.00 0.00 0.00 58 1019.0
20260830215031 88 67 0.0 6.0 0.00 0.00 0.00 60 1019.0
20260830214604 88 126 0.0 6.0 0.00 0.00 0.00 59 1019.1
20260830214031 89 87 2.0 7.0 0.00 0.00 0.00 58 1019.3
20260830213528 89 0 2.0 7.0 0.00 0.00 0.00 58 1019.2
20260830213045 89 23 2.0 4.0 0.00 0.00 0.00 58 1019.1
20260830212531 89 0 1.0 6.0 0.00 0.00 0.00 58 1019.2
20260830212031 89 80 1.0 8.0 0.00 0.00 0.00 57 1019.1
20260830211543 89 82 3.0 8.0 0.00 0.00 0.00 58 1019.2
20260830211032 89 71 4.0 11.0 0.00 0.00 0.00 58 1019.3
20260830210532 89 111 5.0 11.0 0.00 0.00 0.00 57 1019.2
20260830210105 89 109 2.0 6.0 0.00 0.00 0.00 58 1019.3
20260830205532 89 32 0.0 6.0 0.00 0.00 0.00 58 1019.3
20260830205031 89 117 1.0 6.0 0.00 0.00 0.00 57 1019.2
20260830204558 89 113 3.0 10.0 0.00 0.00 0.00 56 1019.4
20260830204031 89 90 3.0 10.0 0.00 0.00 0.00 57 1019.3
20260830203531 89 139 3.0 8.0 0.00 0.00 0.00 57 1019.5
20260830203043 89 113 1.0 6.0 0.00 0.00 0.00 58 1019.4
20260830202532 89 212 2.0 6.0 0.00 0.00 0.00 59 1019.5
20260830202033 88 104 2.0 7.0 0.00 0.00 0.00 60 1019.5
20260830201542 88 37 2.0 10.0 0.00 0.00 0.00 59 1019.5
20260830201034 88 101 2.0 10.0 0.00 0.00 0.00 59 1019.6
20260830200534 89 111 5.0 10.0 0.00 0.00 0.00 58 1019.6
20260830200055 89 136 3.0 8.0 0.00 0.00 0.00 59 1019.7
20260830195531 89 101 3.0 8.0 0.00 0.00 0.00 59 1019.7
20260830195031 89 140 1.0 10.0 0.00 0.00 0.00 61 1019.8
20260830194554 89 52 4.0 10.0 0.00 0.00 0.00 60 1020.0
20260830194031 88 109 2.0 11.0 0.00 0.00 0.00 61 1020.0
20260830193529 88 153 4.0 11.0 0.00 0.00 0.00 61 1020.1
20260830193047 88 0 3.0 9.0 0.00 0.00 0.00 61 1020.2
20260830192532 88 146 2.0 9.0 0.00 0.00 0.00 61 1020.3
20260830192031 88 36 3.0 9.0 0.00 0.00 0.00 61 1020.2
20260830191545 89 0 2.0 8.0 0.00 0.00 0.00 62 1020.4
20260830191030 89 91 2.0 9.0 0.00 0.00 0.00 62 1020.4
20260830190531 88 57 4.0 9.0 0.00 0.00 0.00 62 1020.5
20260830190124 88 51 1.0 6.0 0.00 0.00 0.00 63 1020.6
20260830185532 87 223 2.0 10.0 0.00 0.00 0.00 63 1020.6
20260830185031 86 164 4.0 10.0 0.00 0.00 0.00 63 1020.7
20260830184607 87 71 1.0 9.0 0.00 0.00 0.00 63 1020.8
20260830184029 87 109 5.0 11.0 0.00 0.00 0.00 62 1020.9
20260830183529 88 122 4.0 11.0 0.00 0.00 0.00 64 1020.9
20260830183057 88 117 2.0 7.0 0.00 0.00 0.00 63 1021.0
20260830182531 88 29 2.0 9.0 0.00 0.00 0.00 63 1021.2
20260830182028 88 151 3.0 9.0 0.00 0.00 0.00 62 1021.2
20260830181554 88 150 3.0 8.0 0.00 0.00 0.00 62 1021.2
20260830181033 88 96 2.0 10.0 0.00 0.00 0.00 63 1021.2
20260830180530 87 90 3.0 10.0 0.00 0.00 0.00 63 1021.3
20260830180108 87 88 4.0 10.0 0.00 0.00 0.00 64 1021.4
20260830175531 87 117 2.0 11.0 0.00 0.00 0.00 64 1021.5
20260830175033 87 213 4.0 11.0 0.00 0.00 0.00 65 1021.5
20260830174605 86 75 5.0 10.0 0.00 0.00 0.00 66 1021.5
20260830174032 86 98 3.0 8.0 0.00 0.00 0.00 68 1021.6
20260830173530 86 138 2.0 8.0 0.00 0.00 0.00 67 1021.7
20260830173100 87 121 2.0 8.0 0.00 0.00 0.00 67 1021.7
20260830172528 87 55 3.0 8.0 0.00 0.00 0.00 67 1021.8
20260830172031 86 108 3.0 9.0 0.00 0.00 0.00 68 1021.9
20260830171558 86 80 2.0 13.0 0.00 0.00 0.00 68 1021.9
20260830171030 85 119 4.0 13.0 0.00 0.00 0.00 68 1022.1
20260830170533 85 76 4.0 9.0 0.00 0.00 0.00 69 1022.1
20260830170055 85 144 1.0 10.0 0.00 0.00 0.00 70 1022.1
20260830165533 85 118 3.0 10.0 0.00 0.00 0.00 70 1022.1
20260830165030 85 10 1.0 7.0 0.00 0.00 0.00 70 1022.2
20260830164548 85 0 3.0 8.0 0.00 0.00 0.00 70 1022.3
20260830164032 85 41 2.0 9.0 0.00 0.00 0.00 71 1022.2
20260830163530 84 121 3.0 11.0 0.00 0.00 0.00 72 1022.3
20260830163048 84 82 1.0 11.0 0.00 0.00 0.00 72 1022.4
20260830162528 84 34 3.0 11.0 0.00 0.00 0.00 72 1022.6
20260830162031 83 101 2.0 11.0 0.00 0.00 0.00 73 1022.6
20260830161555 83 121 4.0 11.0 0.00 0.00 0.00 74 1022.6
20260830161029 82 163 2.0 8.0 0.00 0.00 0.00 75 1022.5
20260830160531 82 107 4.0 8.0 0.00 0.00 0.00 76 1022.6
20260830160054 82 71 4.0 8.0 0.00 0.00 0.00 74 1022.6
20260830155536 82 40 3.0 9.0 0.00 0.00 0.00 75 1022.6
20260830155028 82 109 3.0 11.0 0.00 0.00 0.00 75 1022.6
20260830154549 83 147 3.0 11.0 0.00 0.00 0.00 76 1022.7
20260830154035 82 154 3.0 9.0 0.00 0.00 0.00 77 1022.7
20260830153533 82 100 4.0 8.0 0.00 0.00 0.00 77 1022.8
20260830153047 82 108 2.0 11.0 0.00 0.00 0.00 77 1022.7
20260830152533 82 93 4.0 11.0 0.00 0.00 0.00 76 1022.8
20260830152033 82 91 3.0 8.0 0.00 0.00 0.00 77 1022.9
20260830151552 82 119 2.0 9.0 0.00 0.00 0.00 78 1023.0
20260830151031 81 140 4.0 10.0 0.00 0.00 0.00 78 1022.9
20260830150530 81 78 5.0 10.0 0.00 0.00 0.00 79 1022.9
20260830150048 81 105 3.0 10.0 0.00 0.00 0.00 80 1022.9
20260830145528 80 134 2.0 10.0 0.00 0.00 0.00 81 1022.8
20260830145029 80 129 4.0 10.0 0.00 0.00 0.00 81 1022.9
20260830144557 80 100 5.0 10.0 0.00 0.00 0.00 81 1022.8
20260830144029 80 71 3.0 11.0 0.00 0.00 0.00 81 1022.9
20260830143531 80 85 4.0 11.0 0.00 0.00 0.00 81 1022.9
20260830143105 80 146 1.0 9.0 0.00 0.00 0.00 82 1022.8
20260830142530 80 101 3.0 9.0 0.00 0.00 0.00 82 1022.7
20260830142028 80 99 1.0 9.0 0.00 0.00 0.00 82 1022.8
20260830141550 80 131 3.0 9.0 0.00 0.00 0.00 83 1022.7
20260830141031 79 105 2.0 8.0 0.00 0.00 0.00 83 1022.7
20260830140531 79 63 4.0 8.0 0.00 0.00 0.00 84 1022.8
20260830140049 78 128 2.0 7.0 0.00 0.00 0.00 85 1022.9
20260830135531 78 114 2.0 7.0 0.00 0.00 0.00 85 1022.8
20260830135031 78 36 1.0 7.0 0.00 0.00 0.00 86 1022.9
20260830134544 78 123 3.0 7.0 0.00 0.00 0.00 86 1022.9
20260830134032 78 144 2.0 6.0 0.00 0.00 0.00 87 1023.0
20260830133529 77 30 2.0 7.0 0.00 0.00 0.00 87 1022.9
20260830133055 77 59 1.0 7.0 0.00 0.00 0.00 88 1023.0
20260830132530 76 68 2.0 5.0 0.00 0.00 0.00 88 1022.9
20260830132031 76 0 1.0 6.0 0.00 0.00 0.00 89 1023.0
20260830131551 76 113 2.0 6.0 0.00 0.00 0.00 89 1023.0
20260830131030 76 100 2.0 5.0 0.00 0.00 0.00 89 1022.9
20260830130530 76 98 3.0 6.0 0.00 0.00 0.00 90 1023.0
20260830130047 75 59 2.0 6.0 0.00 0.00 0.00 91 1023.0
20260830125530 75 99 0.0 4.0 0.00 0.00 0.00 92 1022.9
20260830125030 74 47 0.0 6.0 0.00 0.00 0.00 92 1022.9
20260830124543 74 0 1.0 6.0 0.00 0.00 0.00 93 1022.8
20260830124030 74 82 0.0 4.0 0.00 0.00 0.00 93 1022.7
20260830123530 73 44 1.0 3.0 0.00 0.00 0.00 93 1022.8
20260830123052 73 90 0.0 3.0 0.00 0.00 0.00 93 1022.8
20260830122531 73 0 0.0 3.0 0.00 0.00 0.00 93 1022.8
20260830122031 72 0 0.0 2.0 0.00 0.00 0.00 94 1022.7
20260830121547 72 92 0.0 2.0 0.00 0.00 0.00 93 1022.7
20260830121030 72 0 0.0 2.0 0.00 0.00 0.00 93 1022.6
20260830120530 72 0 0.0 2.0 0.00 0.00 0.00 93 1022.5
20260830120058 72 0 0.0 0.0 0.00 0.00 0.00 93 1022.4
20260830115530 72 0 0.0 0.0 0.00 0.00 0.00 93 1022.3
20260830115031 72 0 0.0 0.0 0.00 0.00 0.00 93 1022.3
20260830114556 72 0 0.0 0.0 0.00 0.00 0.00 93 1022.2
20260830114034 72 0 0.0 0.0 0.00 0.00 0.00 93 1022.1
20260830113531 71 0 0.0 0.0 0.00 0.00 0.00 93 1022.1
20260830113048 71 0 0.0 0.0 0.00 0.00 0.00 92 1021.9
20260830112532 71 0 0.0 0.0 0.00 0.00 0.00 92 1021.8
20260830112030 72 0 0.0 0.0 0.00 0.00 0.00 92 1021.7
20260830111545 72 0 0.0 0.0 0.00 0.00 0.00 92 1021.6
20260830111031 72 0 0.0 0.0 0.00 0.00 0.00 92 1021.5
20260830110533 72 0 0.0 1.0 0.00 0.00 0.00 92 1021.4
20260830110050 72 0 0.0 1.0 0.00 0.00 0.00 92 1021.3
20260830105531 72 0 0.0 1.0 0.00 0.01 0.00 92 1021.1
20260830105029 72 0 0.0 1.0 0.00 0.01 0.00 92 1021.2
20260830104604 72 0 0.0 2.0 0.00 0.01 0.00 92 1021.1
20260830104033 72 0 0.0 3.0 0.00 0.01 0.00 92 1021.1
20260830103534 72 0 0.0 3.0 0.00 0.01 0.00 92 1021.3
20260830103048 72 92 0.0 2.0 0.00 0.01 0.00 92 1021.3
20260830102531 72 96 0.0 3.0 0.00 0.01 0.00 92 1021.3
20260830102030 72 96 0.0 3.0 0.00 0.01 0.00 92 1021.3
20260830101543 72 96 1.0 3.0 0.00 0.01 0.00 92 1021.2
20260830101034 72 0 0.0 0.0 0.00 0.01 0.00 92 1021.2
20260830100530 72 0 0.0 0.0 0.00 0.01 0.00 92 1021.2
20260830100059 72 0 0.0 0.0 0.00 0.01 0.00 92 1021.1
20260830095530 72 0 0.0 2.0 0.00 0.01 0.00 92 1021.0
20260830095030 72 0 0.0 2.0 0.00 0.01 0.00 92 1021.0
20260830094548 72 0 0.0 2.0 0.00 0.01 0.00 92 1020.9
20260830094031 72 0 0.0 1.0 0.00 0.01 0.00 92 1021.0
20260830093532 72 0 0.0 2.0 0.00 0.01 0.00 92 1021.0
20260830093045 72 0 0.0 2.0 0.00 0.01 0.00 91 1021.1
20260830092534 72 0 0.0 1.0 0.00 0.01 0.00 91 1021.0
20260830092031 72 0 0.0 1.0 0.00 0.01 0.00 91 1021.0
20260830091545 72 0 0.0 0.0 0.00 0.01 0.00 91 1021.0
20260830091031 72 0 0.0 2.0 0.00 0.01 0.00 91 1020.9
20260830090530 72 0 0.0 2.0 0.00 0.01 0.00 91 1021.0
20260830090055 72 0 0.0 0.0 0.00 0.01 0.00 91 1021.0
20260830085529 72 0 0.0 0.0 0.00 0.01 0.00 91 1021.0
20260830085032 72 0 0.0 1.0 0.00 0.01 0.00 91 1021.1
20260830084542 72 0 0.0 2.0 0.00 0.01 0.00 91 1021.0
20260830084033 72 0 0.0 2.0 0.00 0.01 0.00 91 1021.0
20260830083537 72 99 0.0 2.0 0.00 0.01 0.00 91 1021.0
20260830083103 72 0 0.0 2.0 0.00 0.01 0.00 91 1020.9
20260830082530 72 103 0.0 3.0 0.00 0.01 0.00 90 1020.9
20260830082032 73 0 0.0 3.0 0.00 0.01 0.00 90 1020.9
20260830081546 73 104 0.0 3.0 0.00 0.01 0.00 91 1020.9
20260830081033 73 0 0.0 0.0 0.00 0.01 0.00 90 1020.8
20260830080533 73 0 0.0 0.0 0.00 0.01 0.00 90 1020.7
20260830080056 73 0 0.0 0.0 0.00 0.01 0.00 90 1020.6
20260830075531 73 0 0.0 0.0 0.00 0.01 0.00 90 1020.6
20260830075030 73 0 0.0 0.0 0.00 0.01 0.00 90 1020.6
20260830074546 73 0 0.0 0.0 0.00 0.01 0.00 90 1020.6
20260830074032 73 0 0.0 0.0 0.00 0.01 0.00 89 1020.6
20260830073535 73 0 0.0 0.0 0.00 0.01 0.00 89 1020.6
20260830073101 73 0 0.0 0.0 0.00 0.01 0.00 89 1020.5
20260830072532 73 0 0.0 0.0 0.00 0.01 0.00 89 1020.5
20260830072033 73 0 0.0 0.0 0.00 0.01 0.00 88 1020.5
20260830071550 74 0 0.0 0.0 0.00 0.01 0.00 89 1020.6
20260830071034 74 0 0.0 0.0 0.00 0.01 0.00 88 1020.6
20260830070532 74 0 0.0 0.0 0.00 0.01 0.00 88 1020.8
20260830070047 74 0 0.0 0.0 0.00 0.01 0.00 88 1020.7
20260830065533 74 0 0.0 0.0 0.00 0.01 0.00 87 1020.8
20260830065032 74 0 0.0 0.0 0.00 0.01 0.00 88 1020.9
20260830064545 74 0 0.0 0.0 0.00 0.01 0.00 88 1021.0
20260830064033 74 0 0.0 0.0 0.00 0.01 0.00 87 1020.9
20260830063531 75 0 0.0 0.0 0.00 0.01 0.00 87 1020.9
20260830063109 75 0 0.0 0.0 0.00 0.01 0.00 86 1021.0
20260830062534 75 0 0.0 0.0 0.00 0.01 0.00 87 1021.0
20260830062031 75 0 0.0 0.0 0.00 0.01 0.00 87 1020.9
20260830061554 75 0 0.0 0.0 0.00 0.01 0.00 87 1021.1
20260830061031 75 0 0.0 0.0 0.00 0.01 0.00 87 1021.2
20260830060533 75 0 0.0 0.0 0.00 0.01 0.00 87 1021.2
20260830060053 75 0 0.0 0.0 0.00 0.01 0.00 87 1021.2
20260830055532 75 0 0.0 0.0 0.00 0.03 0.00 86 1021.3
20260830055031 75 0 0.0 0.0 0.00 0.03 0.00 87 1021.3
20260830054546 75 0 0.0 0.0 0.00 0.03 0.00 87 1021.4
20260830054030 75 0 0.0 0.0 0.00 0.03 0.00 86 1021.4